#timestamp,LO_Frequency,Hit,StdDev 
1524636015.0,286047001.0,N
1524636015.9,286047001.0,N
1524636035.8,286047000.3,N
1524636055.6,286046999.9,N
1524636075.4,286047000.0,N
1524636095.3,286046999.9,N
1524636115.1,286047000.3,N
1524636135.8,286047000.2,N
1524636155.7,286047002.5,Y
1524636175.5,286046999.7,P
1524636195.4,286046999.7,N
1524636215.2,286047000.3,N
1524636235.0,286046999.8,N
1524636235.9,286046999.8,N
1524636255.8,286047000.1,N
1524636275.6,286047000.1,N
1524636295.5,286046999.8,N
1524636315.3,286047002.8,Y
1524636335.1,286047000.2,P
1524636355.9,286047002.4,P
1524636375.7,286046999.7,N
1524636395.5,286047002.8,N
1524636415.4,286047000.2,N
1524636435.2,286047002.3,N
1524636455.1,286047002.3,N
1524636456.0,286047002.3,N
1524636475.8,286047002.2,N
1524636495.6,286046999.8,N
1524636515.5,286047002.3,N
1524636535.3,286046999.8,N
1524636555.2,286047002.5,N
1524636575.9,286046999.7,N
1524636595.7,286047002.4,N
1524636615.6,286047000.2,N
1524636635.4,286047000.0,N
1524636655.2,286047000.0,N
1524636675.1,286047002.7,N
1524636676.0,286047002.7,N
1524636695.8,286047002.7,N
1524636715.7,286047002.3,N
1524636735.5,286047002.5,N
1524636755.3,286047002.6,N
1524636775.2,286046999.7,N
1524636795.9,286047002.2,N
1524636815.7,286046999.8,N
1524636835.6,286047002.5,N
1524636855.4,286047002.2,N
1524636875.3,286047002.2,N
1524636895.1,286047002.2,N
1524636896.0,286047002.2,N
1524636915.8,286047002.2,N
1524636935.7,286047002.6,N
1524636955.5,286047002.2,N
1524636975.3,286047002.1,N
1524636995.2,286047001.9,N
1524637015.0,286047001.9,N
1524637015.9,286047001.9,N
1524637035.8,286047002.0,N
1524637055.6,286047002.0,N
1524637075.4,286047002.0,N
1524637095.3,286047002.4,N
1524637115.1,286047001.6,N
1524637135.8,286047001.6,N
1524637155.7,286047002.3,N
1524637175.5,286047001.9,N
1524637195.4,286047001.6,N
1524637215.2,286047001.5,N
1524637235.0,286047001.8,N
1524637235.9,286047001.8,N
1524637255.8,286047001.9,N
1524637275.6,286047001.4,N
1524637295.4,286047001.7,N
1524637315.3,286047001.8,N
1524637335.1,286047001.5,Y
1524637355.9,286047000.0,P
1524637375.7,286047000.8,N
1524637395.5,286047000.3,N
1524637415.4,286047000.3,N
1524637435.2,286047000.4,N
1524637455.0,286047000.0,N
1524637456.0,286047000.0,N
1524637475.8,286047000.2,N
1524637495.6,286047000.2,N
1524637515.5,286047000.0,N
1524637535.3,286047000.2,N
1524637555.1,286047000.0,N
1524637575.9,286047000.0,N
1524637595.7,286046999.9,N
1524637615.6,286047000.1,N
1524637635.4,286047000.5,N
1524637655.2,286047000.1,N
1524637675.1,286047000.1,N
1524637676.0,286047000.1,N
1524637695.8,286046999.8,N
1524637715.6,286047000.1,N
1524637735.5,286047002.8,Y
1524637755.3,286047000.1,P
1524637775.2,286047000.3,P
1524637795.9,286047000.4,P
1524637815.7,286046999.8,N
1524637835.6,286047000.3,N
1524637855.4,286047000.1,N
1524637875.2,286047000.2,N
1524637895.1,286047000.0,N
1524637896.0,286047000.0,N
1524637915.8,286046999.9,N
1524637935.7,286047000.2,N
1524637955.5,286047000.7,Y
1524637975.3,286047000.4,P
1524637995.2,286047000.5,P
1524638015.0,286047000.5,N
1524638015.9,286047000.5,Y
1524638035.8,286047000.7,P
1524638055.6,286046998.6,P
1524638075.4,286047000.5,N
1524638095.3,286047001.1,N
1524638115.1,286047000.8,N
1524638135.9,286047000.8,N
1524638155.7,286047000.8,N
1524638175.5,286047000.8,N
1524638195.4,286047000.6,N
1524638215.2,286047000.4,N
1524638235.0,286047000.4,N
1524638235.9,286047000.4,N
1524638255.8,286047001.2,N
1524638275.6,286047000.8,N
1524638295.5,286047000.7,N
1524638315.3,286047000.4,N
1524638335.1,286047000.7,N
1524638355.9,286047001.1,N
1524638375.7,286047000.4,N
1524638395.5,286047000.5,N
1524638415.4,286047000.3,N
1524638435.2,286047000.5,N
1524638455.1,286047001.1,N
1524638456.0,286047001.1,N
1524638475.8,286047000.6,N
1524638495.6,286047000.4,N
1524638515.5,286047000.9,N
1524638535.3,286047000.9,N
1524638555.1,286047001.0,N
1524638575.9,286047000.5,N
1524638595.7,286047000.4,N
1524638615.6,286047000.4,N
1524638635.4,286047000.6,N
1524638655.2,286047001.1,Y
1524638675.1,286046998.5,P
1524638676.0,286046998.5,N
1524638695.8,286046998.3,N
1524638715.6,286046998.4,N
1524638735.5,286046998.4,N
1524638755.3,286046998.4,N
1524638775.2,286046998.1,N
1524638795.9,286046998.4,N
1524638815.7,286046998.4,N
1524638835.6,286046998.6,N
1524638855.4,286046998.3,N
1524638875.2,286046999.0,N
1524638895.1,286046998.6,N
1524638896.0,286046998.6,N
1524638915.8,286046998.8,N
1524638935.7,286046998.8,N
1524638955.5,286046999.0,N
1524638975.3,286046998.7,N
1524638995.2,286046998.7,N
1524639015.0,286046998.9,N
1524639015.9,286046998.9,N
1524639035.7,286046998.9,N
1524639055.6,286046998.8,N
1524639075.4,286046998.7,N
1524639095.3,286046998.9,N
1524639115.1,286046999.0,N
1524639116.0,286046999.0,N
1524639135.8,286046998.9,N
1524639155.7,286046999.3,N
1524639175.5,286046999.3,N
1524639195.4,286046999.4,N
1524639215.2,286046999.1,N
1524639235.0,286046999.3,N
1524639235.9,286046999.3,N
1524639255.8,286046999.2,N
1524639275.6,286046999.2,N
1524639295.4,286046996.6,Y
1524639315.3,286047001.2,P
1524639335.1,286046998.4,N
1524639355.9,286046998.7,N
1524639375.7,286046999.4,N
1524639395.5,286046999.4,N
1524639415.4,286046999.5,N
1524639435.2,286046999.3,N
1524639455.0,286046999.0,N
1524639455.9,286046999.0,N
1524639475.8,286046998.4,N
1524639495.6,286046998.4,N
1524639515.5,286046999.1,N
1524639535.3,286046999.2,N
1524639555.1,286046999.2,N
1524639575.9,286046999.2,N
1524639595.7,286046998.9,N
